Regional Weather Roundup
Issued by NWS Sterling, VA

Home | Current Version | Previous Version | Graphics & Text | Print | Product List | Glossary On
Versions: 1 2 3 4 5 6 7 8 9 10 11 12 13 14 15 16 17 18 19 20 21 22 23 24 25 26 27 28 29 30 31 32 33 34 35 36 37 38 39 40 41 42 43 44 45 46 47 48 49 50
000
ASUS41 KLWX 200510
RWRLWX

REGIONAL WEATHER ROUNDUP
NATIONAL WEATHER SERVICE BALTIMORE MD/WASHINGTON DC
100 AM EDT WED AUG 20 2014

Note: "FAIR" indicates few or no clouds below 12,000 feet
with no significant weather and/or obstructions to visibility.
 TC=TEMPERATURE CELSIUS

 * =Non NWS site. Station does not report precipitation (e.g. rain,
    snow, etc.), thunder, or fog.

DCZ001-MDZ009-015-VAZ040>042-051-053>054-200600-
WASHINGTON METRO
  /KDAA//-FT BELVOIR

CITY           SKY/WX    TMP DP  RH WIND       PRES   REMARKS
WASHINGTON NAT MOCLDY    76  66  71 S6        29.94R
DULLES         CLOUDY    73  68  84 S3        29.94R
ANDREWS AFB    PTCLDY    69  67  93 SE2       29.94R
QUANTICO       MOCLDY    75  70  84 S6        29.94R
COLLEGE PARK*  PTCLDY    70  68  94 CALM      29.93S
LEESBURG*      CLOUDY    73  70  88 SE3       29.94S
MANASSAS*      CLOUDY    72  70  94 CALM      29.94R
GAITHERSBURG*  PTCLDY    70  64  83 SE3       29.98S

$$

MDZ006>007-011-014-200600-
BALTIMORE METRO

CITY           SKY/WX    TMP DP  RH WIND       PRES   REMARKS
BWI AIRPORT    PTCLDY    69  64  84 CALM      29.93S
MD SCIENCE CTR   N/A     75  62  64 MISG      29.94R
MARTIN STATE   CLEAR     72  68  88 SE3       29.95S
ANNAPOLIS      PTCLDY    74  61  63 S7        29.92S
FORT MEADE*    CLEAR     64  63  94 CALM      29.95F

$$

MDZ012-015-019>023-200600-
MARYLAND EASTERN SHORE

CITY           SKY/WX    TMP DP  RH WIND       PRES   REMARKS
OCEAN CITY     CLEAR     73  66  78 E7        29.91S
SALISBURY      CLEAR     67  62  84 CALM      29.92S
BAY BRIDGE AP*   N/A     72  63  73 CALM      29.93S
CAMBRIDGE*     PTCLDY    64  61  88 CALM      29.92S
EASTON*        PTCLDY    68  66  93 CALM      29.97R

$$

MDZ017>025-200600-
SOUTHERN MARYLAND

CITY           SKY/WX    TMP DP  RH WIND       PRES   REMARKS
PATUXENT RIVER CLEAR     73  65  75 SE8       29.91F
ST INIGOES     CLEAR     66  62  87 CALM      29.91S
LEONARDTOWN*   CLEAR     68  61  77 CALM      29.94S

$$

MDZ003>005-200600-
NORTH CENTRAL MARYLAND

CITY           SKY/WX    TMP DP  RH WIND       PRES   REMARKS
FREDERICK*     CLOUDY    72  70  94 CALM      29.95F
HAGERSTOWN APT CLOUDY    74  64  71 S5        29.93S
WESTMINSTER*   CLOUDY    73  66  78 S7        29.95S

$$

MDZ501>502-200600-
WESTERN MARYLAND

CITY           SKY/WX    TMP DP  RH WIND       PRES   REMARKS
OAKLAND*       CLEAR     63 N/A N/A S5        30.01S
CUMBERLAND*    CLEAR     72  66  83 CALM      29.97R

$$

VAZ025>031-200600-
SHENANDOAH VALLEY

CITY           SKY/WX    TMP DP  RH WIND       PRES   REMARKS
WINCHESTER*    PTCLDY    70  68  94 CALM      29.93S
STAUNTON*      PTCLDY    69  67  92 CALM      29.98R FOG

$$

WVZ021-048>050-054>055-200600-
EASTERN WEST VIRGINIA PANHANDLE

CITY           SKY/WX    TMP DP  RH WIND       PRES   REMARKS
MARTINSBURG    CLOUDY    73  66  78 SE5       29.93F
PETERSBURG*    NOT AVBL

$$

VAZ036>039-050-200600-
CENTRAL FOOTHILLS

CITY           SKY/WX    TMP DP  RH WIND       PRES   REMARKS
CHARLOTTESVILL MOCLDY    72  70  93 CALM      29.94S
ORANGE*        MOCLDY    70  68  94 CALM      29.95S

$$

VAZ055>057-200600-
NORTH AND CENTRAL PIEDMONT

CITY           SKY/WX    TMP DP  RH WIND       PRES   REMARKS
FREDERICKSBRG* PTCLDY    72  72 100 CALM      29.92S
STAFFORD*      MOCLDY    70  70 100 CALM      29.97S FOG

$$

NCZ024-NYZ072-PAZ021-071-VAZ022-071-200600-
OTHER REGIONAL OBSERVATIONS

CITY           SKY/WX    TMP DP  RH WIND       PRES   REMARKS
NEW YORK CITY  PTCLDY    71  63  75 CALM      29.97S
PHILADELPHIA   CLOUDY    73  63  70 S3        29.94R
PITTSBURGH     CLOUDY    73  66  78 N14G22    29.91R
ROANOKE        CLEAR     68  65  90 NE6       29.98R
RICHMOND       PTCLDY    73  70  90 CALM      29.91F
RALEIGH        MOCLDY    73  70  90 CALM      29.90S

$$

ANZ530>537-200600-
MARINE OBSERVATIONS

STATION/POSITION TIME  TEMP    WIND        PRES
                       AIR SEA DIR/SP/G
                 (UTC) (F)     (DEG/KT/KT) (MB)
THOMAS PT LIGHT  0500   74 78  140/ 10/ 11 1013.9R
BALT KEY BRIDGE  0500   75     140/  5/  6 1013.3F
COVE POINT       0500   74     160/ 10/ 12 1012.9S
LEWISETTA        0500   76 79  120/ 10/ 11 1012.5F
SOLOMONS ISLAND  0500      79                N/A
PINEY POINT      0500          130/  9/ 10   N/A

$$




USA.gov is the U.S. government's official web portal to all federal, state and local government web resources and services.